Hourly Weather Roundup
Issued by NWS Central Illinois

Home | Current Version | Previous Version | Text Only | Print | Product List | Glossary On
Versions: 1 2 3 4 5 6 7 8 9 10 11 12 13 14 15 16 17 18 19 20 21 22 23 24 25 26 27 28 29 30 31 32 33 34 35 36 37 38 39 40 41 42 43 44 45 46 47 48 49 50
000
NZUS43 KILX 170110
HWRILX

AREA WEATHER ROUNDUP
NATIONAL WEATHER SERVICE, LINCOLN IL
800 PM CDT TUE SEP 16 2014


CITY           SKY/WX    TMP DP  RH WIND       PRES   REMARKS
BLOOMINGTON    CLEAR     59  44  57 N3        30.11R
CHAMPAIGN      CLEAR     54  49  83 CALM      30.10S
DECATUR        CLEAR     58  50  75 CALM      30.10S
FLORA          CLEAR     53  51  93 CALM      30.11S
GALESBURG      CLEAR     52  47  82 E3        30.09S
JACKSONVILLE   CLEAR     59  53  78 CALM      30.10S
LACON          CLEAR     51  46  83 CALM      30.10R
LAWRENCEVILLE  CLEAR     55  51  86 CALM      30.11S
LITCHFIELD     CLEAR     52  48  89 SW3       30.11S
$$


CITY           SKY/WX    TMP DP  RH WIND       PRES   REMARKS
LINCOLN        CLEAR     58  50  73 CALM      30.07S
MACOMB         CLEAR     55  49  80 CALM      30.10S
MATTOON        CLEAR     57  52  83 SW5       30.09S
MT CARMEL AP   CLOUDY    55  52  88 CALM      30.11R
OLNEY-NOBLE AP CLEAR     50  50 100 CALM      30.11S
PARIS          CLEAR     51  50  97 CALM      30.10S
PEORIA         CLEAR     55  49  80 CALM      30.10S
PONTIAC        CLEAR     54  52  94 CALM      30.10R
RANTOUL        CLEAR     59  47  65 CALM      30.11R
ROBINSON       CLEAR     53  52  97 CALM      30.11S
SPRINGFIELD    CLEAR     55  51  86 CALM      30.10S
TAYLORVILLE    CLEAR     54  52  94 CALM      30.10S
$$

...REGIONAL REPORTS...


CITY           SKY/WX    TMP DP  RH WIND       PRES   REMARKS
CHICAGO O`HARE CLEAR     61  40  45 VRB6      30.10R
KANKAKEE       CLEAR     53  49  84 CALM      30.11R
MOLINE         CLEAR     54  48  80 CALM      30.09S
MOUNT VERNON   MOCLDY    57  52  82 CALM      30.12S
PITTSFIELD     CLEAR     58  52  79 S5        30.10S
QUINCY         CLEAR     61  49  64 E3        30.08S
ROCKFORD       CLEAR     55  47  74 CALM      30.12R
$$


CITY           SKY/WX    TMP DP  RH WIND       PRES   REMARKS
BURLINGTON     CLEAR     55  49  80 CALM      30.08F
CEDAR RAPIDS   CLEAR     53  48  83 CALM      30.07S
DES MOINES     PTCLDY    62  49  62 SE7       30.05F
KIRKSVILLE     CLEAR     54  51  90 CALM      30.08F
OTTUMWA        CLEAR     52  49  89 CALM      30.07S
ST LOUIS       PTCLDY    59  51  75 E6        30.10F
$$


CITY           SKY/WX    TMP DP  RH WIND       PRES   REMARKS
TERRE HAUTE    CLEAR     53  50  89 CALM      30.10S
EVANSVILLE     CLOUDY    59  51  75 N5        30.11S
INDIANAPOLIS   PTCLDY    57  50  77 S6        30.10R
LAFAYETTE      CLEAR     53  52  96 MISG      30.10R
MADISON        CLEAR     52  46  80 CALM      30.09S
MILWAUKEE      CLEAR     54  44  69 S8        30.10R
$$





USA.gov is the U.S. government's official web portal to all federal, state and local government web resources and services.